STARLINK-1978 (47576 NORAD) Tracking and Keplerian Element Data
This shows tracking and keplerian element data for the satellite.
Feedback or suggestion? Click here.
Element | Value |
Catalog | 47576 |
Name | STARLINK-1978 |
Epoch Orbit | 454 |
Epoch Day | 60.16668981 |
Epoch Year | 2021 |
RAAN | 1.696 |
Inclination | 53.0544 |
Eccentricity | 0.0001127 |
Argument of Perigee | 69.0252 |
Mean Anonmoly | 255.431 |
Mean Motion | 15.62736614 |
Decay Rate | 0.00013189 |
L1 | 1 47576U 21009AE 21060.16668981 .00013189 00000-0 14973-3 0 9994 |
L2 | 2 47576 53.0544 1.6960 0001127 69.0252 255.4310 15.62736614 4543 |
Live tracking and technical data element details for STARLINK-1978 (NORAD 47576). STARLINK-1978 can be tracked NOW for your location showing map with azimuth and elevation plus other details from your city location.
Track the satellite on the map from your city or location and see movement details for azimuth, elevation, latitude, longitude, range, height, and movement on the map or in text.
IsCatalogInMostPopularTable: catalog: 47576, numindb: 4
Update: records affected: 1
GetName: 47576 STARLINK-1978
Hit Count: updated at: Mon, 01 Mar 2021 15:30:47 GMT